Location: Nitra
(0.0000°N, 18.0833°E)
Time: 01:02:22
(UTC+02:00)

Hubble Space Telescope - Pass Details

Date: 12 February 2023
Orbit: 527 x 530 km, 28.5° (Epoch: 28 March)

Event Time Altitude Azimuth Distance (km) Brightness Sun altitude
Exits shadow 04:04:57 28° 145° (SE) 997 2.5 -28.3°
Drops below altitude 10° 04:07:05 10° 132° (SE) 1,764 4.2 -27.8°
Sets 04:09:23 0° 127° (SE) 2,656 5.4 -27.2°
